| time (UTC) | temp F | wind direction | speed MPH | gust MPH | rain 1hr in | rain 24hr in | rain mn in | humidity % | barometer mb |
| 20260506000512 | 55 | 238 | 0.0 | 0.0 | 0.00 | 0.00 | 0.00 | 90 | 1006.4 |
| 20260505233511 | 55 | 230 | 0.0 | 0.0 | 0.00 | 0.00 | 0.00 | 90 | 1006.6 |
| 20260505230510 | 56 | 263 | 0.0 | 0.0 | 0.00 | 0.00 | 0.00 | 90 | 1006.7 |
| 20260505223509 | 56 | 307 | 0.0 | 0.0 | 0.00 | 0.00 | 0.00 | 90 | 1006.8 |
| 20260505220513 | 57 | 253 | 0.0 | 0.0 | 0.00 | 0.00 | 0.00 | 90 | 1006.5 |
| 20260505213512 | 57 | 264 | 0.0 | 0.0 | 0.00 | 0.11 | 0.11 | 89 | 1006.6 |
| 20260505210512 | 57 | 257 | 0.0 | 0.0 | 0.00 | 0.11 | 0.11 | 89 | 1006.5 |
| 20260505203511 | 58 | 272 | 0.0 | 0.0 | 0.01 | 0.11 | 0.11 | 88 | 1006.6 |
| 20260505200510 | 58 | 248 | 0.0 | 0.0 | 0.02 | 0.11 | 0.11 | 87 | 1006.5 |
| 20260505193510 | 58 | 241 | 0.0 | 0.0 | 0.04 | 0.10 | 0.10 | 86 | 1006.3 |
| 20260505190509 | 59 | 244 | 0.0 | 0.0 | 0.03 | 0.09 | 0.09 | 84 | 1006.2 |
| 20260505183513 | 62 | 254 | 0.0 | 0.0 | 0.01 | 0.06 | 0.06 | 84 | 1006.0 |
| 20260505180512 | 62 | 205 | 0.0 | 0.0 | 0.00 | 0.06 | 0.06 | 83 | 1005.8 |
| 20260505173512 | 62 | 205 | 0.0 | 0.0 | 0.00 | 0.06 | 0.06 | 83 | 1005.7 |
| 20260505163510 | 62 | 205 | 0.0 | 0.0 | 0.00 | 0.06 | 0.06 | 84 | 1005.9 |
| 20260505160510 | 62 | 207 | 0.0 | 0.0 | 0.00 | 0.06 | 0.06 | 84 | 1005.8 |
| 20260505150513 | 62 | 207 | 0.0 | 0.0 | 0.01 | 0.06 | 0.06 | 87 | 1006.3 |
| 20260505140512 | 61 | 207 | 0.0 | 0.0 | 0.02 | 0.05 | 0.05 | 88 | 1006.8 |
| 20260505123509 | 63 | 246 | 1.0 | 8.0 | 0.01 | 0.01 | 0.01 | 80 | 1007.5 |
| 20260505120514 | 64 | 256 | 1.0 | 7.0 | 0.00 | 0.00 | 0.00 | 77 | 1007.2 |
| 20260505113513 | 65 | 313 | 0.0 | 0.0 | 0.00 | 0.00 | 0.00 | 73 | 1007.0 |
| 20260505110512 | 65 | 257 | 0.0 | 4.0 | 0.00 | 0.00 | 0.00 | 72 | 1007.3 |
| 20260505100511 | 63 | 237 | 0.0 | 0.0 | 0.00 | 0.00 | 0.00 | 78 | 1007.5 |
| 20260505093510 | 63 | 306 | 0.0 | 0.0 | 0.00 | 0.00 | 0.00 | 74 | 1007.6 |
| 20260505090509 | 63 | 311 | 0.0 | 0.0 | 0.00 | 0.00 | 0.00 | 74 | 1008.0 |
| 20260505083513 | 62 | 305 | 1.0 | 6.0 | 0.00 | 0.00 | 0.00 | 76 | 1008.1 |
| 20260505080512 | 60 | 236 | 0.0 | 0.0 | 0.00 | 0.00 | 0.00 | 80 | 1008.3 |
| 20260505073511 | 60 | 300 | 0.0 | 0.0 | 0.00 | 0.00 | 0.00 | 80 | 1008.4 |
| 20260505070510 | 59 | 250 | 0.0 | 5.0 | 0.00 | 0.00 | 0.00 | 80 | 1008.6 |
| 20260505063510 | 58 | 239 | 0.0 | 0.0 | 0.00 | 0.00 | 0.00 | 81 | 1008.5 |
| 20260505060509 | 57 | 239 | 0.0 | 0.0 | 0.00 | 0.00 | 0.00 | 81 | 1008.7 |
| 20260505053513 | 57 | 238 | 0.0 | 0.0 | 0.00 | 0.00 | 0.00 | 82 | 1008.8 |
| 20260505050512 | 57 | 247 | 0.0 | 0.0 | 0.00 | 0.00 | 0.00 | 82 | 1008.6 |
| 20260505040511 | 57 | 247 | 0.0 | 0.0 | 0.00 | 0.00 | 0.00 | 80 | 1008.4 |
| 20260505033510 | 58 | 247 | 0.0 | 0.0 | 0.00 | 0.00 | 0.00 | 80 | 1008.5 |
| 20260505030509 | 58 | 247 | 0.0 | 0.0 | 0.00 | 0.00 | 0.00 | 79 | 1008.7 |
| 20260505023514 | 59 | 247 | 0.0 | 0.0 | 0.00 | 0.00 | 0.00 | 77 | 1009.1 |
| 20260505020513 | 59 | 247 | 0.0 | 0.0 | 0.00 | 0.00 | 0.00 | 77 | 1009.4 |
| 20260505013512 | 60 | 247 | 0.0 | 0.0 | 0.00 | 0.00 | 0.00 | 76 | 1009.7 |
| 20260505010511 | 60 | 247 | 0.0 | 0.0 | 0.00 | 0.00 | 0.00 | 76 | 1009.9 |
| 20260505003511 | 60 | 248 | 0.0 | 0.0 | 0.00 | 0.00 | 0.00 | 75 | 1010.3 |